Weather History for St. Cloud, MN

Change the Weather History Date:

Tuesday, July 17, 2012

  Actual Average Record
Temperature  
Mean Temperature 77 °F 71 °F  
Max Temperature 85 °F 83 °F 98 °F (1964)
Min Temperature 69 °F 59 °F 44 °F (1906)
Degree Days  
Heating Degree Days 0 0  
Month to date heating degree days 0 13  
Since 1 June heating degree days 30 91  
Since 1 July heating degree days 0 13  
Cooling Degree Days 12 6  
Month to date cooling degree days 218 101  
Year to date cooling degree days 419 221  
Since 1 June cooling degree days 368 196  
Growing Degree Days 28 (Base 50)    
Moisture  
Dew Point 68 °F    
Average Humidity 75    
Maximum Humidity 90    
Minimum Humidity 59    
Precipitation  
Precipitation 0.00 in 0.10 in 0.88 in (1927)
Month to date precipitation 0.88 1.86  
Year to date precipitation 17.56 14.34  
Snow  
Snow 0.00 in 0.00 in 0.00 in ()
Month to date snowfall 0.0 0.0  
Since 1 June snowfall 0.0 0.0  
Since 1 July snowfall 0.0 0.0  
Snow Depth 0.00 in    
Sea Level Pressure  
Sea Level Pressure 29.84 in    
Wind  
Wind Speed 6 mph (NE)    
Max Wind Speed 14 mph    
Max Gust Speed 18 mph    
Visibility 9 miles    
Events      
T = Trace of Precipitation, MM = Missing Value Source: NWS Daily Summary

Daily Weather History Graph

Daily Weather History Graph

Search for Another Location

Airport:

Trip Planner

Search our weather history database for the weather conditions in past years. The results will help you decide how hot, cold, wet, or windy it might be!

Date:

Astronomy

Jul. 17, 2012 Rise Set
Actual Time 5:44 AM CDT 9:00 PM CDT
Civil Twilight 5:08 AM CDT 9:36 PM CDT
Nautical Twilight 4:21 AM CDT 10:22 PM CDT
Astronomical Twilight 3:22 AM CDT 11:21 PM CDT
Moon 4:22 AM CDT (7/17) 7:48 PM CDT (7/17)
Length of Visible Light 16h 27m
Length of Day
15h 15m
Waning Crescent, 2% of the Moon is Illuminated
Jul 17
Waning Crescent
Jul 18
New
Jul 26
First Quarter
Aug 1
Full
Aug 9
Last Quarter

Hourly Weather History & Observations

Time (CDT) Temp. Heat Index Dew Point Humidity Pressure Visibility Wind Dir Wind Speed Gust Speed Precip Events Conditions
12:53 AM 78.1 °F - 71.1 °F 79% 29.76 in 10.0 mi North 3.5 mph - N/A   Clear
1:53 AM 78.1 °F - 72.0 °F 81% 29.76 in 10.0 mi NNE 4.6 mph - N/A   Clear
2:53 AM 75.9 °F - 71.1 °F 85% 29.77 in 8.0 mi NE 4.6 mph - N/A   Clear
3:53 AM 75.0 °F - 70.0 °F 84% 29.78 in 8.0 mi NNE 3.5 mph - N/A   Scattered Clouds
4:53 AM 73.9 °F - 68.0 °F 82% 29.78 in 9.0 mi NNE 3.5 mph - N/A   Clear
5:53 AM 72.0 °F - 68.0 °F 87% 29.79 in 7.0 mi Calm Calm - N/A   Partly Cloudy
6:53 AM 73.0 °F - 68.0 °F 84% 29.82 in 7.0 mi North 6.9 mph - N/A   Mostly Cloudy
7:11 AM 73.4 °F - 68.0 °F 83% 29.83 in 7.0 mi North 8.1 mph - N/A   Mostly Cloudy
7:53 AM 73.0 °F - 66.9 °F 81% 29.85 in 7.0 mi North 11.5 mph - N/A   Overcast
8:26 AM 73.4 °F - 66.2 °F 78% 29.83 in 8.0 mi Variable 6.9 mph - N/A   Overcast
8:53 AM 75.9 °F - 68.0 °F 76% 29.83 in 8.0 mi ENE 5.8 mph - N/A   Partly Cloudy
9:53 AM 75.0 °F - 66.9 °F 76% 29.83 in 9.0 mi ENE 8.1 mph - N/A   Overcast
10:53 AM 78.1 °F - 66.0 °F 66% 29.83 in 10.0 mi ENE 8.1 mph - N/A   Overcast
11:53 AM 82.0 °F 84.9 °F 68.0 °F 62% 29.83 in 10.0 mi East 9.2 mph - N/A   Clear
12:53 PM 84.0 °F 87.8 °F 69.1 °F 61% 29.86 in 10.0 mi Variable 3.5 mph - N/A   Partly Cloudy
1:53 PM 84.0 °F 87.8 °F 69.1 °F 61% 29.86 in 10.0 mi ENE 6.9 mph - N/A   Scattered Clouds
2:53 PM 82.9 °F 85.8 °F 68.0 °F 60% 29.86 in 10.0 mi NE 6.9 mph - N/A   Scattered Clouds
3:53 PM 82.0 °F 84.9 °F 68.0 °F 62% 29.86 in 10.0 mi NE 5.8 mph - N/A   Clear
4:53 PM 84.0 °F 87.0 °F 68.0 °F 58% 29.85 in 10.0 mi NE 8.1 mph - N/A   Partly Cloudy
5:53 PM 82.0 °F 85.5 °F 69.1 °F 65% 29.85 in 10.0 mi NE 12.7 mph 18.4 mph N/A   Overcast
6:53 PM 78.1 °F - 66.9 °F 68% 29.86 in 10.0 mi NE 9.2 mph - N/A   Partly Cloudy
7:53 PM 75.9 °F - 66.0 °F 71% 29.88 in 10.0 mi NE 6.9 mph - N/A   Clear
8:53 PM 73.9 °F - 64.9 °F 73% 29.89 in 10.0 mi ENE 5.8 mph - N/A   Scattered Clouds
9:53 PM 73.0 °F - 64.9 °F 76% 29.91 in 10.0 mi NE 5.8 mph - N/A   Mostly Cloudy
10:53 PM 72.0 °F - 64.9 °F 78% 29.92 in 10.0 mi NE 4.6 mph - N/A   Scattered Clouds
11:53 PM 71.1 °F - 64.9 °F 81% 29.91 in 10.0 mi ENE 6.9 mph - N/A   Clear